Lancaster, CA

12:04 AM PST on February 10, 2016 (GMT -0800)
Gen Fox

Weather History for KWJF - April, 2013

Change the Weather History Date:

Tuesday, April 9, 2013

  Actual Average Record
Temperature  
Mean Temperature 56 °F 57 °F  
Max Temperature 70 °F 71 °F 94 °F (1989)
Min Temperature 44 °F 43 °F 29 °F (2011)
Degree Days  
Heating Degree Days 9    
Month to date heating degree days 30  
Since 1 July heating degree days 2608  
Cooling Degree Days 0    
Month to date cooling degree days 2  
Year to date cooling degree days 14  
Growing Degree Days 6 (Base 50)    
Moisture  
Dew Point 21 °F    
Average Humidity 30    
Maximum Humidity 49    
Minimum Humidity 11    
Precipitation  
Precipitation 0.00 in 0.02 in 0.43 in (1975)
Month to date precipitation 0.00 0.16  
Year to date precipitation 0.95 4.58  
Since 1 July precipitation 1.11  
Snow  
Snow 0.00 in - T in (1999)
Month to date snowfall 0.0  
Since 1 July snowfall 0.0  
Snow Depth 0.00 in    
Sea Level Pressure  
Sea Level Pressure 29.93 in    
Wind  
Wind Speed 12 mph (WNW)    
Max Wind Speed 25 mph    
Max Gust Speed 38 mph    
Visibility 3 miles    
Events      
T = Trace of Precipitation, MM = Missing Value Source: NWS Daily Summary

Daily Weather History Graph

Daily Weather History Graph

Search for Another Location

Airport or City:

Trip Planner

Search our weather history database for the weather conditions in past years. The results will help you decide how hot, cold, wet, or windy it might be!

Date:

Astronomy

Apr. 09, 2013 Rise Set
Actual Time 6:28 AM PDT 7:20 PM PDT
Civil Twilight 6:02 AM PDT 7:46 PM PDT
Nautical Twilight 5:32 AM PDT 8:16 PM PDT
Astronomical Twilight 5:01 AM PDT 8:48 PM PDT
Moon 5:52 AM PDT (4/9) 7:00 PM PDT (4/9)
Length of Visible Light 13h 43m
Length of Day
12h 52m
Waning Crescent, 0% of the Moon is Illuminated
Apr 9
Waning Crescent
Apr 10
New
Apr 18
First Quarter
Apr 25
Full
May 2
Last Quarter

Hourly Weather History & Observations

Time (PDT) Temp. Windchill Dew Point Humidity Pressure Visibility Wind Dir Wind Speed Gust Speed Precip Events Conditions
12:56 AM 48.0 °F - 28.9 °F 48% 29.84 in 0.2 mi WNW 23.0 mph 32.2 mph N/A   Haze
1:11 AM 48.2 °F - 26.6 °F 43% 29.85 in 1.0 mi WNW 25.3 mph 31.1 mph N/A   Haze
1:13 AM 48.2 °F - 26.6 °F 43% 29.85 in 4.0 mi WNW 24.2 mph 31.1 mph N/A   Haze
1:25 AM 48.2 °F - 26.6 °F 43% 29.85 in 1.8 mi WNW 21.9 mph 29.9 mph N/A   Haze
1:28 AM 46.4 °F 38.5 °F 26.6 °F 46% 29.85 in 0.2 mi WNW 21.9 mph 29.9 mph N/A   Haze
1:56 AM 48.0 °F - 25.0 °F 41% 29.84 in 0.2 mi NW 24.2 mph 31.1 mph N/A   Haze
2:56 AM 46.0 °F 38.0 °F 25.0 °F 44% 29.85 in 0.2 mi WNW 21.9 mph 25.3 mph N/A   Haze
3:56 AM 46.0 °F 38.8 °F 25.0 °F 44% 29.86 in 0.2 mi WNW 18.4 mph - N/A   Haze
4:56 AM 45.0 °F 37.1 °F 26.1 °F 48% 29.88 in 0.2 mi WNW 19.6 mph - N/A   Haze
5:09 AM 46.4 °F 39.5 °F 24.8 °F 43% 29.88 in 1.8 mi WNW 17.3 mph 25.3 mph N/A   Haze
5:16 AM 46.4 °F 39.8 °F 24.8 °F 43% 29.88 in 10.0 mi WNW 16.1 mph - N/A   Clear
5:34 AM 44.6 °F 37.4 °F 24.8 °F 46% 29.88 in 0.8 mi WNW 16.1 mph - N/A   Haze
5:43 AM 44.6 °F 37.2 °F 24.8 °F 46% 29.89 in 0.2 mi WNW 17.3 mph - N/A   Haze
5:56 AM 45.0 °F 37.1 °F 25.0 °F 46% 29.91 in 0.2 mi West 19.6 mph 23.0 mph N/A   Haze
6:22 AM 46.4 °F 41.9 °F 24.8 °F 43% 29.91 in 1.2 mi WNW 9.2 mph - N/A   Haze
6:25 AM 46.4 °F 41.5 °F 24.8 °F 43% 29.91 in 0.2 mi WNW 10.4 mph - N/A   Haze
6:56 AM 45.0 °F 41.8 °F 25.0 °F 46% 29.94 in 0.2 mi WNW 5.8 mph - N/A   Haze
7:56 AM 50.0 °F - 24.1 °F 36% 29.96 in 0.2 mi WNW 9.2 mph - N/A   Haze
8:56 AM 53.1 °F - 23.0 °F 31% 29.98 in 0.2 mi West 3.5 mph - N/A   Haze
9:56 AM 55.9 °F - 21.0 °F 26% 29.97 in 10.0 mi SSW 4.6 mph - N/A   Clear
10:56 AM 60.1 °F - 21.0 °F 22% 29.98 in 10.0 mi Calm Calm - N/A   Clear
11:56 AM 62.1 °F - 18.0 °F 18% 29.96 in 10.0 mi North 4.6 mph - N/A   Clear
12:13 PM 64.4 °F - 15.8 °F 15% 29.97 in 0.2 mi NNW 11.5 mph 19.6 mph N/A   Clear
12:25 PM 64.4 °F - 12.2 °F 13% 29.96 in 1.2 mi NNE 10.4 mph - N/A   Clear
12:32 PM 64.4 °F - 12.2 °F 13% 29.96 in 7.0 mi NE 13.8 mph 19.6 mph N/A   Clear
12:56 PM 66.0 °F - 10.9 °F 12% 29.94 in 7.0 mi NE 17.3 mph 21.9 mph N/A   Clear
1:56 PM 66.0 °F - 10.0 °F 11% 29.94 in - North 6.9 mph - N/A   Clear
2:56 PM 66.9 °F - 16.0 °F 14% 29.92 in - NW 10.4 mph - N/A   Clear
3:56 PM 68.0 °F - 12.9 °F 12% 29.92 in - Variable 6.9 mph - N/A   Clear
4:56 PM 68.0 °F - 19.0 °F 15% 29.92 in - WNW 15.0 mph 23.0 mph N/A   Clear
5:56 PM 66.0 °F - 18.0 °F 16% 29.93 in - WNW 19.6 mph - N/A   Clear
6:56 PM 61.0 °F - 18.0 °F 19% 29.94 in - WNW 21.9 mph - N/A   Clear
7:56 PM 57.0 °F - 19.9 °F 24% 29.96 in - WNW 19.6 mph - N/A   Clear
8:56 PM 55.0 °F - 21.0 °F 27% 30.01 in - West 11.5 mph - N/A   Clear
9:56 PM 52.0 °F - 19.9 °F 28% 30.04 in - NNW 6.9 mph - N/A   Clear
10:56 PM 53.1 °F - 21.9 °F 30% 30.06 in - South 5.8 mph - N/A   Clear
11:56 PM 50.0 °F - 21.0 °F 32% 30.09 in - Calm Calm - N/A   Clear